Вернуться в каталог

FENGYUN 1C DEB

АктивенPO
NORAD 31069·DEBRIS·🇨🇳 China

Запущен May 10, 1999 с Taiyuan Satellite Launch Center

Loading…

Ближайшие Пролёты (ближайшие 24 часа)

TLE

СвежийSource: Space-Track

Эпоха: Sep 14, 2026, 06:13 UTC

1 31069U 99025BFP 26257.25941134  .00001496  00000-0  31039-3 0  9994
2 31069  99.1144  88.7132 0100547 323.4957  35.9413 14.58856960 26979

Отслеживайте FENGYUN 1C DEB в реальном времени с AllMySat

Download on the App Store